Time,TemperatureF,DewpointF,PressureIn,WindDirection,WindDirectionDegrees,WindSpeedMPH,WindSpeedGustMPH,Humidity,HourlyPrecipIn,Conditions,Clouds,dailyrainin,SoftwareType,DateUTC
2013-01-28 00:00:00,59.6,56.7,30.34,NE,36,0.0,1.0,90,0.00,CLR,CLR,0.00,WeatherDisplay:10.37,2013-01-28 05:00:00,
2013-01-28 00:01:00,59.6,56.7,30.34,NE,36,0.0,0.0,90,0.00,CLR,,0.00,WeatherDisplay:10.37,2013-01-28 05:01:00,
2013-01-28 00:06:00,59.6,56.7,30.34,NE,36,0.0,0.0,90,0.00,CLR,,0.00,WeatherDisplay:10.37,2013-01-28 05:06:00,
2013-01-28 00:11:00,59.6,56.7,30.34,NE,36,0.0,0.0,90,0.00,CLR,,0.00,WeatherDisplay:10.37,2013-01-28 05:11:00,
2013-01-28 00:16:00,59.7,56.8,30.34,NE,36,0.0,0.0,90,0.00,CLR,,0.00,WeatherDisplay:10.37,2013-01-28 05:16:00,
2013-01-28 00:21:00,59.7,56.8,30.34,NE,36,0.0,0.0,90,0.00,CLR,,0.00,WeatherDisplay:10.37,2013-01-28 05:21:00,
2013-01-28 00:26:00,59.8,56.9,30.34,NE,36,1.1,1.1,90,0.00,CLR,,0.00,WeatherDisplay:10.37,2013-01-28 05:26:00,
2013-01-28 00:31:00,59.8,56.9,30.34,NE,36,0.0,0.0,90,0.00,CLR,,0.00,WeatherDisplay:10.37,2013-01-28 05:31:00,
2013-01-28 00:36:00,59.8,56.9,30.34,NNE,33,0.0,0.0,90,0.00,CLR,,0.00,WeatherDisplay:10.37,2013-01-28 05:36:00,
2013-01-28 00:41:00,59.8,56.9,30.34,NNE,33,1.1,0.0,90,0.00,CLR,,0.00,WeatherDisplay:10.37,2013-01-28 05:41:00,
2013-01-28 00:46:00,59.8,56.9,30.34,NNE,33,0.0,0.0,90,0.00,CLR,,0.00,WeatherDisplay:10.37,2013-01-28 05:46:00,
2013-01-28 00:51:00,59.9,57.0,30.34,NE,34,0.0,0.0,90,0.00,CLR,,0.00,WeatherDisplay:10.37,2013-01-28 05:51:00,
2013-01-28 00:56:00,59.9,57.0,30.34,NE,34,0.0,0.0,90,0.00,CLR,,0.00,WeatherDisplay:10.37,2013-01-28 05:56:00,
2013-01-28 01:01:00,59.9,57.0,30.33,NNE,33,0.0,0.0,90,0.00,CLR,,0.00,WeatherDisplay:10.37,2013-01-28 06:01:00,
2013-01-28 01:06:00,60.0,57.1,30.33,NNE,33,0.0,0.0,90,0.00,CLR,,0.00,WeatherDisplay:10.37,2013-01-28 06:06:00,
2013-01-28 01:11:00,60.0,57.1,30.33,NNE,33,2.3,2.3,90,0.00,CLR,,0.00,WeatherDisplay:10.37,2013-01-28 06:11:00,
2013-01-28 01:16:00,60.0,57.1,30.33,NNE,33,1.1,1.1,90,0.00,CLR,,0.00,WeatherDisplay:10.37,2013-01-28 06:16:00,
2013-01-28 01:21:00,60.0,57.1,30.33,NNE,33,1.1,0.0,90,0.00,CLR,,0.00,WeatherDisplay:10.37,2013-01-28 06:21:00,
2013-01-28 01:26:00,60.0,57.1,30.34,NNE,33,1.1,1.1,90,0.00,CLR,,0.00,WeatherDisplay:10.37,2013-01-28 06:26:00,
2013-01-28 01:31:00,60.1,57.2,30.34,NNE,33,1.1,0.0,90,0.00,CLR,,0.00,WeatherDisplay:10.37,2013-01-28 06:31:00,
2013-01-28 01:36:00,60.1,57.2,30.34,NNE,33,0.0,0.0,90,0.00,CLR,,0.00,WeatherDisplay:10.37,2013-01-28 06:36:00,
2013-01-28 01:41:00,60.1,57.2,30.34,NNE,33,0.0,0.0,90,0.00,CLR,,0.00,WeatherDisplay:10.37,2013-01-28 06:41:00,
2013-01-28 01:46:00,60.0,57.1,30.33,NNE,33,0.0,0.0,90,0.00,CLR,,0.00,WeatherDisplay:10.37,2013-01-28 06:46:00,
2013-01-28 01:51:00,60.0,57.4,30.33,NE,34,1.1,0.0,91,0.00,CLR,,0.00,WeatherDisplay:10.37,2013-01-28 06:51:00,
2013-01-28 01:56:00,60.0,57.4,30.33,NNE,33,0.0,0.0,91,0.00,CLR,,0.00,WeatherDisplay:10.37,2013-01-28 06:56:00,
2013-01-28 02:01:00,59.9,57.3,30.33,NNE,33,0.0,0.0,91,0.00,CLR,,0.00,WeatherDisplay:10.37,2013-01-28 07:01:00,
2013-01-28 02:06:00,59.9,57.3,30.33,NNE,33,0.0,0.0,91,0.00,CLR,,0.00,WeatherDisplay:10.37,2013-01-28 07:06:00,
2013-01-28 02:11:00,59.9,57.3,30.33,NNE,33,0.0,0.0,91,0.00,CLR,,0.00,WeatherDisplay:10.37,2013-01-28 07:11:00,
2013-01-28 02:16:00,59.8,57.2,30.33,NNE,33,0.0,0.0,91,0.00,CLR,,0.00,WeatherDisplay:10.37,2013-01-28 07:16:00,
2013-01-28 02:21:00,59.8,57.2,30.32,NNE,33,0.0,0.0,91,0.00,CLR,,0.00,WeatherDisplay:10.37,2013-01-28 07:21:00,
2013-01-28 02:26:00,59.7,57.1,30.32,NNE,33,0.0,0.0,91,0.00,CLR,,0.00,WeatherDisplay:10.37,2013-01-28 07:26:00,
2013-01-28 02:31:00,59.7,57.1,30.32,NNE,33,0.0,0.0,91,0.00,CLR,,0.00,WeatherDisplay:10.37,2013-01-28 07:31:00,
2013-01-28 02:36:00,59.7,57.1,30.32,NNE,33,0.0,0.0,91,0.00,CLR,,0.00,WeatherDisplay:10.37,2013-01-28 07:36:00,
2013-01-28 02:41:00,59.6,57.3,30.33,NNE,33,0.0,0.0,92,0.00,CLR,,0.00,WeatherDisplay:10.37,2013-01-28 07:41:00,
2013-01-28 02:46:00,59.7,57.4,30.33,NNE,33,0.0,0.0,92,0.00,CLR,,0.00,WeatherDisplay:10.37,2013-01-28 07:46:00,
2013-01-28 02:51:00,59.7,57.4,30.32,NNE,33,0.0,0.0,92,0.00,CLR,,0.00,WeatherDisplay:10.37,2013-01-28 07:51:00,
2013-01-28 02:56:00,59.7,57.4,30.32,NNE,33,0.0,0.0,92,0.00,CLR,,0.00,WeatherDisplay:10.37,2013-01-28 07:56:00,
2013-01-28 03:01:00,59.7,57.1,30.32,NNE,33,0.0,0.0,91,0.00,CLR,,0.00,WeatherDisplay:10.37,2013-01-28 08:01:00,
2013-01-28 03:06:00,59.7,57.4,30.32,NNE,33,0.0,0.0,92,0.00,CLR,,0.00,WeatherDisplay:10.37,2013-01-28 08:06:00,
2013-01-28 03:11:00,59.7,57.4,30.32,NNE,33,0.0,0.0,92,0.00,CLR,,0.00,WeatherDisplay:10.37,2013-01-28 08:11:00,
2013-01-28 03:16:00,59.6,57.3,30.32,NNE,33,0.0,0.0,92,0.00,CLR,,0.00,WeatherDisplay:10.37,2013-01-28 08:16:00,
2013-01-28 03:21:00,59.7,57.4,30.32,NNE,33,0.0,0.0,92,0.00,CLR,,0.00,WeatherDisplay:10.37,2013-01-28 08:21:00,
2013-01-28 03:26:00,59.6,57.3,30.32,NNE,33,0.0,0.0,92,0.00,CLR,,0.00,WeatherDisplay:10.37,2013-01-28 08:26:00,
2013-01-28 03:31:00,59.6,57.3,30.32,NNE,33,0.0,0.0,92,0.00,CLR,,0.00,WeatherDisplay:10.37,2013-01-28 08:31:00,
2013-01-28 03:36:00,59.5,57.2,30.32,NNE,33,0.0,0.0,92,0.00,CLR,,0.00,WeatherDisplay:10.37,2013-01-28 08:36:00,
2013-01-28 03:41:00,59.4,57.1,30.32,NNE,33,0.0,0.0,92,0.00,CLR,,0.00,WeatherDisplay:10.37,2013-01-28 08:41:00,
2013-01-28 03:46:00,59.3,57.0,30.32,NNE,33,0.0,0.0,92,0.00,CLR,,0.00,WeatherDisplay:10.37,2013-01-28 08:46:00,
2013-01-28 03:51:00,59.2,56.9,30.32,NNE,33,0.0,0.0,92,0.00,CLR,,0.00,WeatherDisplay:10.37,2013-01-28 08:51:00,
2013-01-28 03:56:00,59.1,56.8,30.32,NNE,33,0.0,0.0,92,0.00,CLR,,0.00,WeatherDisplay:10.37,2013-01-28 08:56:00,
2013-01-28 04:01:00,59.0,56.7,30.32,NNE,33,0.0,0.0,92,0.00,CLR,,0.00,WeatherDisplay:10.37,2013-01-28 09:01:00,
2013-01-28 04:06:00,58.9,56.6,30.32,NNE,33,0.0,0.0,92,0.00,CLR,,0.00,WeatherDisplay:10.37,2013-01-28 09:06:00,
2013-01-28 04:11:00,58.7,56.4,30.32,NNE,33,0.0,0.0,92,0.00,CLR,,0.00,WeatherDisplay:10.37,2013-01-28 09:11:00,
2013-01-28 04:16:00,58.6,56.3,30.32,NNE,33,0.0,0.0,92,0.00,CLR,,0.00,WeatherDisplay:10.37,2013-01-28 09:16:00,
2013-01-28 04:21:00,58.4,56.1,30.32,NNE,33,0.0,0.0,92,0.00,CLR,,0.00,WeatherDisplay:10.37,2013-01-28 09:21:00,
2013-01-28 04:26:00,58.2,56.2,30.32,NNE,33,0.0,0.0,93,0.00,CLR,,0.00,WeatherDisplay:10.37,2013-01-28 09:26:00,
2013-01-28 04:31:00,58.1,56.1,30.31,NNE,33,0.0,0.0,93,0.00,CLR,,0.00,WeatherDisplay:10.37,2013-01-28 09:31:00,
2013-01-28 04:36:00,57.9,55.9,30.31,NNE,33,0.0,0.0,93,0.00,CLR,,0.00,WeatherDisplay:10.37,2013-01-28 09:36:00,
2013-01-28 04:41:00,57.7,55.7,30.31,NNE,33,0.0,0.0,93,0.00,CLR,,0.00,WeatherDisplay:10.37,2013-01-28 09:41:00,
2013-01-28 04:46:00,57.6,55.6,30.31,NNE,33,0.0,0.0,93,0.00,CLR,,0.00,WeatherDisplay:10.37,2013-01-28 09:46:00,
2013-01-28 04:51:00,57.5,55.5,30.31,NNE,33,0.0,0.0,93,0.00,CLR,,0.00,WeatherDisplay:10.37,2013-01-28 09:51:00,
2013-01-28 04:56:00,57.3,55.3,30.31,NNE,33,0.0,0.0,93,0.00,CLR,,0.00,WeatherDisplay:10.37,2013-01-28 09:56:00,
2013-01-28 05:01:00,57.2,55.5,30.31,NNE,33,0.0,0.0,94,0.00,CLR,,0.00,WeatherDisplay:10.37,2013-01-28 10:01:00,
2013-01-28 05:06:00,57.1,55.4,30.31,NNE,33,0.0,0.0,94,0.00,CLR,,0.00,WeatherDisplay:10.37,2013-01-28 10:06:00,
2013-01-28 05:11:00,56.9,55.2,30.31,NNE,33,0.0,0.0,94,0.00,CLR,,0.00,WeatherDisplay:10.37,2013-01-28 10:11:00,
2013-01-28 05:16:00,56.9,55.2,30.31,NNE,33,0.0,0.0,94,0.00,CLR,,0.00,WeatherDisplay:10.37,2013-01-28 10:16:00,
2013-01-28 05:21:00,56.8,55.1,30.31,NNE,33,0.0,0.0,94,0.00,CLR,,0.00,WeatherDisplay:10.37,2013-01-28 10:21:00,
2013-01-28 05:26:00,56.6,54.9,30.31,NNE,33,0.0,0.0,94,0.00,CLR,,0.00,WeatherDisplay:10.37,2013-01-28 10:26:00,
2013-01-28 05:31:00,56.5,54.8,30.31,NNE,33,0.0,0.0,94,0.00,CLR,,0.00,WeatherDisplay:10.37,2013-01-28 10:31:00,
2013-01-28 05:36:00,56.4,54.7,30.31,NNE,33,0.0,0.0,94,0.00,CLR,,0.00,WeatherDisplay:10.37,2013-01-28 10:36:00,
2013-01-28 05:41:00,56.3,54.6,30.32,NNE,33,0.0,0.0,94,0.00,CLR,,0.00,WeatherDisplay:10.37,2013-01-28 10:41:00,
2013-01-28 05:46:00,56.2,54.5,30.32,NNE,33,0.0,0.0,94,0.00,CLR,,0.00,WeatherDisplay:10.37,2013-01-28 10:46:00,
2013-01-28 05:51:00,56.2,54.5,30.32,NNE,33,0.0,0.0,94,0.00,CLR,,0.00,WeatherDisplay:10.37,2013-01-28 10:51:00,
2013-01-28 05:56:00,56.1,54.7,30.32,NNE,33,0.0,0.0,95,0.00,CLR,,0.00,WeatherDisplay:10.37,2013-01-28 10:56:00,
2013-01-28 06:01:00,56.0,54.6,30.32,NNE,33,0.0,0.0,95,0.00,CLR,,0.00,WeatherDisplay:10.37,2013-01-28 11:01:00,
2013-01-28 06:06:00,55.9,54.2,30.32,NNE,33,0.0,0.0,94,0.00,CLR,,0.00,WeatherDisplay:10.37,2013-01-28 11:06:00,
2013-01-28 06:11:00,55.8,54.1,30.32,NNE,33,0.0,0.0,94,0.00,CLR,,0.00,WeatherDisplay:10.37,2013-01-28 11:11:00,
2013-01-28 06:16:00,55.7,54.0,30.32,NNE,33,0.0,0.0,94,0.00,CLR,,0.00,WeatherDisplay:10.37,2013-01-28 11:16:00,
2013-01-28 06:21:00,55.5,53.8,30.32,NNE,33,0.0,0.0,94,0.00,CLR,,0.00,WeatherDisplay:10.37,2013-01-28 11:21:00,
2013-01-28 06:26:00,55.4,54.0,30.32,NNE,33,0.0,0.0,95,0.00,CLR,,0.00,WeatherDisplay:10.37,2013-01-28 11:26:00,
2013-01-28 06:31:00,55.4,54.0,30.32,NNE,33,0.0,0.0,95,0.00,CLR,,0.00,WeatherDisplay:10.37,2013-01-28 11:31:00,
2013-01-28 06:36:00,55.3,53.9,30.32,NNE,33,0.0,0.0,95,0.00,CLR,,0.00,WeatherDisplay:10.37,2013-01-28 11:36:00,
2013-01-28 06:41:00,55.3,53.9,30.33,NNE,33,0.0,0.0,95,0.00,CLR,,0.00,WeatherDisplay:10.37,2013-01-28 11:41:00,
2013-01-28 06:46:00,55.2,53.8,30.33,NNE,33,0.0,0.0,95,0.00,CLR,,0.00,WeatherDisplay:10.37,2013-01-28 11:46:00,
2013-01-28 06:51:00,55.2,53.8,30.33,NNE,33,0.0,0.0,95,0.00,CLR,,0.00,WeatherDisplay:10.37,2013-01-28 11:51:00,
2013-01-28 06:56:00,55.1,53.7,30.33,NNE,33,0.0,0.0,95,0.00,CLR,,0.00,WeatherDisplay:10.37,2013-01-28 11:56:00,
2013-01-28 07:01:00,55.1,53.7,30.33,NNE,33,0.0,0.0,95,0.00,CLR,,0.00,WeatherDisplay:10.37,2013-01-28 12:01:00,
2013-01-28 07:06:00,55.1,54.0,30.33,NNE,33,0.0,0.0,96,0.00,CLR,,0.00,WeatherDisplay:10.37,2013-01-28 12:06:00,
2013-01-28 07:11:00,55.1,54.0,30.33,NNE,33,0.0,0.0,96,0.00,CLR,,0.00,WeatherDisplay:10.37,2013-01-28 12:11:00,
2013-01-28 07:16:00,55.3,54.2,30.33,NNE,33,0.0,0.0,96,0.00,CLR,,0.00,WeatherDisplay:10.37,2013-01-28 12:16:00,
2013-01-28 07:21:00,55.3,54.2,30.33,NNE,33,0.0,0.0,96,0.00,CLR,,0.00,WeatherDisplay:10.37,2013-01-28 12:21:00,
2013-01-28 07:26:00,55.3,54.2,30.34,NNE,33,0.0,0.0,96,0.00,CLR,,0.00,WeatherDisplay:10.37,2013-01-28 12:26:00,
2013-01-28 07:31:00,55.3,54.2,30.34,NNE,33,0.0,0.0,96,0.00,CLR,,0.00,WeatherDisplay:10.37,2013-01-28 12:31:00,
2013-01-28 07:36:00,55.4,54.3,30.34,NNE,33,0.0,0.0,96,0.00,CLR,,0.00,WeatherDisplay:10.37,2013-01-28 12:36:00,
2013-01-28 07:41:00,55.4,54.3,30.34,NE,34,0.0,0.0,96,0.00,CLR,,0.00,WeatherDisplay:10.37,2013-01-28 12:41:00,
2013-01-28 07:46:00,55.5,54.4,30.34,NNE,33,1.1,0.0,96,0.00,CLR,,0.00,WeatherDisplay:10.37,2013-01-28 12:46:00,
2013-01-28 07:51:00,55.6,54.5,30.34,NNE,33,0.0,0.0,96,0.00,CLR,,0.00,WeatherDisplay:10.37,2013-01-28 12:51:00,
2013-01-28 07:56:00,55.6,54.5,30.34,NE,34,0.0,0.0,96,0.00,CLR,,0.00,WeatherDisplay:10.37,2013-01-28 12:56:00,
2013-01-28 08:01:00,55.7,54.6,30.34,NE,34,0.0,0.0,96,0.00,CLR,,0.00,WeatherDisplay:10.37,2013-01-28 13:01:00,
2013-01-28 08:06:00,55.9,54.8,30.34,NNE,33,0.0,0.0,96,0.00,CLR,,0.00,WeatherDisplay:10.37,2013-01-28 13:06:00,
2013-01-28 08:11:00,56.1,55.0,30.34,NNE,33,0.0,0.0,96,0.00,CLR,,0.00,WeatherDisplay:10.37,2013-01-28 13:11:00,
2013-01-28 08:16:00,56.3,55.2,30.35,NNE,33,0.0,0.0,96,0.00,CLR,,0.00,WeatherDisplay:10.37,2013-01-28 13:16:00,
2013-01-28 08:21:00,56.5,55.4,30.35,NNE,33,0.0,0.0,96,0.00,CLR,,0.00,WeatherDisplay:10.37,2013-01-28 13:21:00,
2013-01-28 08:26:00,56.7,55.6,30.35,NNE,33,0.0,0.0,96,0.00,CLR,,0.00,WeatherDisplay:10.37,2013-01-28 13:26:00,
2013-01-28 08:31:00,56.9,55.8,30.35,NNE,33,0.0,0.0,96,0.00,CLR,,0.00,WeatherDisplay:10.37,2013-01-28 13:31:00,
2013-01-28 08:36:00,57.1,56.0,30.35,NNE,33,0.0,0.0,96,0.00,CLR,,0.00,WeatherDisplay:10.37,2013-01-28 13:36:00,
2013-01-28 08:41:00,57.5,56.4,30.35,NE,34,0.0,0.0,96,0.00,CLR,,0.00,WeatherDisplay:10.37,2013-01-28 13:41:00,
2013-01-28 08:46:00,57.8,56.7,30.35,NNE,33,0.0,0.2,96,0.00,CLR,,0.00,WeatherDisplay:10.37,2013-01-28 13:46:00,
2013-01-28 08:51:00,58.3,57.2,30.35,NNE,33,0.0,0.0,96,0.00,CLR,,0.00,WeatherDisplay:10.37,2013-01-28 13:51:00,
2013-01-28 08:56:00,58.7,57.3,30.35,NNE,33,1.1,1.1,95,0.00,CLR,,0.00,WeatherDisplay:10.37,2013-01-28 13:56:00,
2013-01-28 09:01:00,59.3,57.9,30.35,NE,34,2.3,2.3,95,0.00,CLR,,0.00,WeatherDisplay:10.37,2013-01-28 14:01:00,
2013-01-28 09:06:00,60.0,58.6,30.35,NE,34,0.0,0.0,95,0.00,CLR,,0.00,WeatherDisplay:10.37,2013-01-28 14:06:00,
2013-01-28 09:11:00,61.1,59.1,30.35,NE,34,0.0,0.0,93,0.00,CLR,,0.00,WeatherDisplay:10.37,2013-01-28 14:11:00,
2013-01-28 09:16:00,62.1,59.7,30.35,NNE,33,0.0,0.0,92,0.00,CLR,,0.00,WeatherDisplay:10.37,2013-01-28 14:16:00,
2013-01-28 09:21:00,63.3,60.0,30.35,NNE,33,0.0,0.0,89,0.00,CLR,,0.00,WeatherDisplay:10.37,2013-01-28 14:21:00,
2013-01-28 09:26:00,64.4,60.8,30.35,NE,34,0.0,0.0,88,0.00,CLR,,0.00,WeatherDisplay:10.37,2013-01-28 14:26:00,
2013-01-28 09:31:00,65.5,60.5,30.35,NE,34,0.0,0.0,84,0.00,CLR,,0.00,WeatherDisplay:10.37,2013-01-28 14:31:00,
2013-01-28 09:36:00,66.3,61.0,30.35,NNE,33,0.0,0.0,83,0.00,CLR,,0.00,WeatherDisplay:10.37,2013-01-28 14:36:00,
2013-01-28 09:41:00,66.9,61.6,30.35,NE,34,0.0,0.0,83,0.00,CLR,,0.00,WeatherDisplay:10.37,2013-01-28 14:41:00,
2013-01-28 09:46:00,67.5,61.8,30.35,NE,34,0.0,0.0,82,0.00,CLR,,0.00,WeatherDisplay:10.37,2013-01-28 14:46:00,
2013-01-28 09:51:00,68.2,61.8,30.36,NE,34,0.0,0.0,80,0.00,CLR,,0.00,WeatherDisplay:10.37,2013-01-28 14:51:00,
2013-01-28 09:56:00,69.2,63.1,30.36,NE,34,0.0,0.0,81,0.00,CLR,,0.00,WeatherDisplay:10.37,2013-01-28 14:56:00,
2013-01-28 10:01:00,70.3,62.7,30.36,SE,146,4.0,4.0,77,0.00,CLR,,0.00,WeatherDisplay:10.37,2013-01-28 15:01:00,
2013-01-28 10:06:00,71.1,63.1,30.36,SE,146,4.0,4.0,76,0.00,CLR,,0.00,WeatherDisplay:10.37,2013-01-28 15:06:00,
2013-01-28 10:11:00,72.0,62.9,30.36,SSE,156,4.0,4.0,73,0.00,CLR,,0.00,WeatherDisplay:10.37,2013-01-28 15:11:00,
2013-01-28 10:16:00,71.9,62.0,30.36,SE,143,3.5,3.5,71,0.00,CLR,,0.00,WeatherDisplay:10.37,2013-01-28 15:16:00,
2013-01-28 10:21:00,71.5,62.0,30.36,SSE,149,4.6,4.6,72,0.00,CLR,,0.00,WeatherDisplay:10.37,2013-01-28 15:21:00,
2013-01-28 10:26:00,71.6,62.9,30.36,SSE,150,5.8,5.8,74,0.00,CLR,,0.00,WeatherDisplay:10.37,2013-01-28 15:26:00,
2013-01-28 10:31:00,71.8,62.3,30.36,South,178,2.3,2.3,72,0.00,CLR,,0.00,WeatherDisplay:10.37,2013-01-28 15:31:00,
2013-01-28 10:36:00,72.1,62.2,30.36,SSE,159,7.0,7.0,71,0.00,CLR,,0.00,WeatherDisplay:10.37,2013-01-28 15:36:00,
2013-01-28 10:41:00,72.4,63.3,30.36,South,186,1.1,1.1,73,0.00,CLR,,0.00,WeatherDisplay:10.37,2013-01-28 15:41:00,
2013-01-28 10:46:00,73.0,62.2,30.36,SSE,165,7.0,7.0,69,0.00,CLR,,0.00,WeatherDisplay:10.37,2013-01-28 15:46:00,
2013-01-28 10:51:00,73.1,62.7,30.35,SSE,161,4.6,4.6,70,0.00,CLR,,0.00,WeatherDisplay:10.37,2013-01-28 15:51:00,
2013-01-28 10:56:00,73.5,62.7,30.35,SSE,157,6.9,6.9,69,0.00,CLR,,0.00,WeatherDisplay:10.37,2013-01-28 15:56:00,
2013-01-28 11:01:00,73.9,63.5,30.35,South,173,5.8,5.8,70,0.00,CLR,,0.00,WeatherDisplay:10.37,2013-01-28 16:01:00,
2013-01-28 11:06:00,74.3,63.1,30.35,SSE,163,8.1,8.1,68,0.00,CLR,,0.00,WeatherDisplay:10.37,2013-01-28 16:06:00,
2013-01-28 11:11:00,74.5,63.7,30.35,SSE,163,8.0,8.0,69,0.00,CLR,,0.00,WeatherDisplay:10.37,2013-01-28 16:11:00,
2013-01-28 11:16:00,74.4,63.1,30.34,South,177,2.3,2.3,68,0.00,CLR,,0.00,WeatherDisplay:10.37,2013-01-28 16:16:00,
2013-01-28 11:21:00,74.4,63.6,30.34,SE,146,4.6,4.6,69,0.00,CLR,,0.00,WeatherDisplay:10.37,2013-01-28 16:21:00,
2013-01-28 11:26:00,74.4,63.6,30.34,SSE,165,8.1,8.1,69,0.00,CLR,,0.00,WeatherDisplay:10.37,2013-01-28 16:26:00,
2013-01-28 11:31:00,74.6,63.8,30.34,South,180,6.0,6.0,69,0.00,CLR,,0.00,WeatherDisplay:10.37,2013-01-28 16:31:00,
2013-01-28 11:36:00,74.5,63.7,30.34,SSE,161,5.8,5.8,69,0.00,CLR,,0.00,WeatherDisplay:10.37,2013-01-28 16:36:00,
2013-01-28 11:41:00,74.3,64.3,30.34,SSE,149,4.6,4.6,71,0.00,CLR,,0.00,WeatherDisplay:10.37,2013-01-28 16:41:00,
2013-01-28 11:46:00,74.2,63.4,30.34,South,187,5.8,5.8,69,0.00,CLR,,0.00,WeatherDisplay:10.37,2013-01-28 16:46:00,
2013-01-28 11:51:00,74.4,64.0,30.34,SE,140,4.6,4.6,70,0.00,CLR,,0.00,WeatherDisplay:10.37,2013-01-28 16:51:00,
2013-01-28 11:56:00,74.8,64.4,30.34,SE,138,2.0,2.0,70,0.00,CLR,,0.00,WeatherDisplay:10.37,2013-01-28 16:56:00,
2013-01-28 12:01:00,74.6,63.8,30.33,SE,139,2.3,2.3,69,0.00,CLR,,0.00,WeatherDisplay:10.37,2013-01-28 17:01:00,
2013-01-28 12:06:00,74.3,63.9,30.33,South,172,6.9,6.9,70,0.00,CLR,,0.00,WeatherDisplay:10.37,2013-01-28 17:06:00,
2013-01-28 12:11:00,74.1,63.3,30.33,SSE,164,5.8,5.8,69,0.00,CLR,,0.00,WeatherDisplay:10.37,2013-01-28 17:11:00,
2013-01-28 12:16:00,74.1,64.1,30.32,SSE,160,4.6,4.6,71,0.00,CLR,,0.00,WeatherDisplay:10.37,2013-01-28 17:16:00,
2013-01-28 12:21:00,74.3,64.3,30.32,SSE,160,1.1,1.1,71,0.00,CLR,,0.00,WeatherDisplay:10.37,2013-01-28 17:21:00,
2013-01-28 12:26:00,74.8,65.2,30.32,SE,146,5.0,5.0,72,0.00,CLR,,0.00,WeatherDisplay:10.37,2013-01-28 17:26:00,
2013-01-28 12:31:00,74.9,63.6,30.31,SE,140,9.2,9.2,68,0.00,CLR,,0.00,WeatherDisplay:10.37,2013-01-28 17:31:00,
2013-01-28 12:36:00,74.8,64.4,30.31,SSE,167,3.5,3.5,70,0.00,CLR,,0.00,WeatherDisplay:10.37,2013-01-28 17:36:00,
2013-01-28 12:41:00,74.9,64.0,30.30,SE,142,1.1,1.1,69,0.00,CLR,,0.00,WeatherDisplay:10.37,2013-01-28 17:41:00,
2013-01-28 12:46:00,75.1,64.6,30.30,South,178,2.3,2.3,70,0.00,CLR,,0.00,WeatherDisplay:10.37,2013-01-28 17:46:00,
2013-01-28 12:51:00,75.4,64.1,30.30,SSW,192,9.2,9.2,68,0.00,CLR,,0.00,WeatherDisplay:10.37,2013-01-28 17:51:00,
2013-01-28 12:56:00,75.3,64.0,30.30,SE,140,3.5,3.5,68,0.00,CLR,,0.00,WeatherDisplay:10.37,2013-01-28 17:56:00,
2013-01-28 13:01:00,75.2,64.3,30.29,SE,135,4.6,4.6,69,0.00,CLR,,0.00,WeatherDisplay:10.37,2013-01-28 18:01:00,
2013-01-28 13:06:00,75.5,63.8,30.29,SE,140,4.6,4.6,67,0.00,CLR,,0.00,WeatherDisplay:10.37,2013-01-28 18:06:00,
2013-01-28 13:11:00,75.6,63.9,30.29,South,178,8.1,8.1,67,0.00,CLR,,0.00,WeatherDisplay:10.37,2013-01-28 18:11:00,
2013-01-28 13:16:00,75.3,64.0,30.29,SSE,161,7.0,7.0,68,0.00,CLR,,0.00,WeatherDisplay:10.37,2013-01-28 18:16:00,
2013-01-28 13:21:00,75.2,63.5,30.28,SE,141,6.9,6.9,67,0.00,CLR,,0.00,WeatherDisplay:10.37,2013-01-28 18:21:00,
2013-01-28 13:26:00,75.0,63.3,30.28,SE,133,4.6,4.6,67,0.00,CLR,,0.00,WeatherDisplay:10.37,2013-01-28 18:26:00,
2013-01-28 13:31:00,74.8,63.5,30.28,SSE,161,6.9,6.9,68,0.00,CLR,,0.00,WeatherDisplay:10.37,2013-01-28 18:31:00,
2013-01-28 13:36:00,75.2,64.3,30.27,South,173,5.0,5.0,69,0.00,CLR,,0.00,WeatherDisplay:10.37,2013-01-28 18:36:00,
2013-01-28 13:41:00,75.5,63.3,30.26,SSE,165,8.1,8.1,66,0.00,CLR,,0.00,WeatherDisplay:10.37,2013-01-28 18:41:00,
2013-01-28 13:46:00,75.7,64.0,30.27,SSE,155,4.6,4.6,67,0.00,CLR,,0.00,WeatherDisplay:10.37,2013-01-28 18:46:00,
2013-01-28 13:51:00,76.0,64.7,30.26,SE,136,6.9,6.9,68,0.00,CLR,,0.00,WeatherDisplay:10.37,2013-01-28 18:51:00,
2013-01-28 13:56:00,76.4,63.3,30.26,SSE,165,6.0,6.0,64,0.00,CLR,,0.00,WeatherDisplay:10.37,2013-01-28 18:56:00,
2013-01-28 14:01:00,76.5,63.9,30.26,SE,144,3.5,3.5,65,0.00,CLR,,0.00,WeatherDisplay:10.37,2013-01-28 19:01:00,
2013-01-28 14:06:00,76.3,63.2,30.26,South,178,6.9,6.9,64,0.00,CLR,,0.00,WeatherDisplay:10.37,2013-01-28 19:06:00,
2013-01-28 14:11:00,75.9,62.8,30.26,SSE,160,4.0,4.0,64,0.00,CLR,,0.00,WeatherDisplay:10.37,2013-01-28 19:11:00,
2013-01-28 14:16:00,75.5,62.5,30.25,SSE,153,3.5,3.5,64,0.00,CLR,,0.00,WeatherDisplay:10.37,2013-01-28 19:16:00,
2013-01-28 14:21:00,75.2,63.5,30.25,SSE,164,2.3,2.3,67,0.00,CLR,,0.00,WeatherDisplay:10.37,2013-01-28 19:21:00,
2013-01-28 14:26:00,75.6,63.0,30.25,SSE,167,5.8,5.8,65,0.00,CLR,,0.00,WeatherDisplay:10.37,2013-01-28 19:26:00,
2013-01-28 14:31:00,75.7,62.7,30.25,South,178,10.4,10.4,64,0.00,CLR,,0.00,WeatherDisplay:10.37,2013-01-28 19:31:00,
2013-01-28 14:36:00,75.9,62.8,30.24,SE,132,4.0,4.0,64,0.00,CLR,,0.00,WeatherDisplay:10.37,2013-01-28 19:36:00,
2013-01-28 14:41:00,76.2,62.7,30.24,SE,146,11.5,11.5,63,0.00,CLR,,0.00,WeatherDisplay:10.37,2013-01-28 19:41:00,
2013-01-28 14:46:00,76.3,64.1,30.24,ESE,117,3.5,3.5,66,0.00,CLR,,0.00,WeatherDisplay:10.37,2013-01-28 19:46:00,
2013-01-28 14:51:00,76.6,63.1,30.25,SE,140,7.0,7.0,63,0.00,CLR,,0.00,WeatherDisplay:10.37,2013-01-28 19:51:00,
2013-01-28 14:56:00,76.5,63.4,30.24,SSE,155,5.8,5.8,64,0.00,CLR,,0.00,WeatherDisplay:10.37,2013-01-28 19:56:00,
2013-01-28 15:01:00,76.6,63.5,30.24,SE,144,8.1,8.1,64,0.00,CLR,,0.00,WeatherDisplay:10.37,2013-01-28 20:01:00,
2013-01-28 15:06:00,76.6,64.0,30.25,ESE,114,2.3,2.3,65,0.00,CLR,,0.00,WeatherDisplay:10.37,2013-01-28 20:06:00,
2013-01-28 15:11:00,76.8,64.1,30.24,SE,138,3.5,3.5,65,0.00,CLR,,0.00,WeatherDisplay:10.37,2013-01-28 20:11:00,
2013-01-28 15:16:00,76.9,63.8,30.24,SE,140,3.5,3.5,64,0.00,CLR,,0.00,WeatherDisplay:10.37,2013-01-28 20:16:00,
2013-01-28 15:21:00,76.7,63.2,30.24,SSE,150,5.8,5.8,63,0.00,CLR,,0.00,WeatherDisplay:10.37,2013-01-28 20:21:00,
2013-01-28 15:26:00,76.5,63.4,30.24,ESE,122,4.6,4.6,64,0.00,CLR,,0.00,WeatherDisplay:10.37,2013-01-28 20:26:00,
2013-01-28 15:31:00,76.2,63.1,30.24,SSE,150,1.1,1.1,64,0.00,CLR,,0.00,WeatherDisplay:10.37,2013-01-28 20:31:00,
2013-01-28 15:36:00,75.9,62.8,30.24,South,171,4.6,4.6,64,0.00,CLR,,0.00,WeatherDisplay:10.37,2013-01-28 20:36:00,
2013-01-28 15:41:00,75.5,63.3,30.24,South,169,1.1,1.1,66,0.00,CLR,,0.00,WeatherDisplay:10.37,2013-01-28 20:41:00,
2013-01-28 15:46:00,75.2,63.1,30.24,SSE,157,3.5,3.5,66,0.00,CLR,,0.00,WeatherDisplay:10.37,2013-01-28 20:46:00,
2013-01-28 15:51:00,74.8,62.7,30.24,SSE,157,4.6,4.6,66,0.00,CLR,,0.00,WeatherDisplay:10.37,2013-01-28 20:51:00,
2013-01-28 15:56:00,74.6,62.9,30.24,SSE,165,3.5,3.5,67,0.00,CLR,,0.00,WeatherDisplay:10.37,2013-01-28 20:56:00,
2013-01-28 16:01:00,74.5,63.2,30.24,SSE,151,5.0,5.0,68,0.00,CLR,,0.00,WeatherDisplay:10.37,2013-01-28 21:01:00,
2013-01-28 16:06:00,74.4,63.1,30.24,SE,141,10.4,10.4,68,0.00,CLR,,0.00,WeatherDisplay:10.37,2013-01-28 21:06:00,
2013-01-28 16:11:00,74.2,63.4,30.24,SE,144,4.6,4.6,69,0.00,CLR,,0.00,WeatherDisplay:10.37,2013-01-28 21:11:00,
2013-01-28 16:16:00,73.9,63.1,30.24,South,181,2.3,2.3,69,0.00,CLR,,0.00,WeatherDisplay:10.37,2013-01-28 21:16:00,
2013-01-28 16:21:00,73.7,63.3,30.25,SSE,154,8.0,8.0,70,0.00,CLR,,0.00,WeatherDisplay:10.37,2013-01-28 21:21:00,
2013-01-28 16:26:00,73.5,63.1,30.25,SE,144,3.5,3.5,70,0.00,CLR,,0.00,WeatherDisplay:10.37,2013-01-28 21:26:00,
2013-01-28 16:31:00,73.3,63.3,30.25,SSE,161,4.6,4.6,71,0.00,CLR,,0.00,WeatherDisplay:10.37,2013-01-28 21:31:00,
2013-01-28 16:36:00,73.1,63.1,30.25,SSE,152,5.8,5.8,71,0.00,CLR,,0.00,WeatherDisplay:10.37,2013-01-28 21:36:00,
2013-01-28 16:41:00,72.8,63.2,30.25,SE,137,5.8,5.8,72,0.00,CLR,,0.00,WeatherDisplay:10.37,2013-01-28 21:41:00,
2013-01-28 16:46:00,72.5,63.0,30.25,SSE,157,4.6,4.6,72,0.00,CLR,,0.00,WeatherDisplay:10.37,2013-01-28 21:46:00,
2013-01-28 16:51:00,72.3,63.2,30.25,SSE,164,0.0,0.0,73,0.00,CLR,,0.00,WeatherDisplay:10.37,2013-01-28 21:51:00,
2013-01-28 16:56:00,72.2,63.1,30.25,South,174,3.5,3.5,73,0.00,CLR,,0.00,WeatherDisplay:10.37,2013-01-28 21:56:00,
2013-01-28 17:01:00,72.0,62.9,30.25,SSE,149,5.0,5.0,73,0.00,CLR,,0.00,WeatherDisplay:10.37,2013-01-28 22:01:00,
2013-01-28 17:06:00,72.0,63.3,30.25,South,169,3.5,3.5,74,0.00,CLR,,0.00,WeatherDisplay:10.37,2013-01-28 22:06:00,
2013-01-28 17:11:00,71.9,63.2,30.25,SSE,164,3.5,3.5,74,0.00,CLR,,0.00,WeatherDisplay:10.37,2013-01-28 22:11:00,
2013-01-28 17:16:00,71.9,63.2,30.25,SSE,148,3.5,3.5,74,0.00,CLR,,0.00,WeatherDisplay:10.37,2013-01-28 22:16:00,
2013-01-28 17:21:00,71.8,63.4,30.25,SE,142,6.0,6.0,75,0.00,CLR,,0.00,WeatherDisplay:10.37,2013-01-28 22:21:00,
2013-01-28 17:26:00,71.6,63.3,30.25,SE,142,2.0,2.0,75,0.00,CLR,,0.00,WeatherDisplay:10.37,2013-01-28 22:26:00,
2013-01-28 17:31:00,71.5,63.5,30.25,SSE,159,1.1,0.0,76,0.00,CLR,,0.00,WeatherDisplay:10.37,2013-01-28 22:31:00,
2013-01-28 17:36:00,71.4,63.4,30.25,SSE,149,3.5,3.5,76,0.00,CLR,,0.00,WeatherDisplay:10.37,2013-01-28 22:36:00,
2013-01-28 17:41:00,71.3,63.7,30.25,SSE,149,2.3,2.3,77,0.00,CLR,,0.00,WeatherDisplay:10.37,2013-01-28 22:41:00,
2013-01-28 17:46:00,71.1,63.5,30.25,SSE,155,3.5,3.5,77,0.00,CLR,,0.00,WeatherDisplay:10.37,2013-01-28 22:46:00,
2013-01-28 17:51:00,71.0,63.4,30.26,SSE,150,4.6,4.6,77,0.00,CLR,,0.00,WeatherDisplay:10.37,2013-01-28 22:51:00,
2013-01-28 17:56:00,70.8,63.6,30.26,SSE,147,3.5,3.5,78,0.00,CLR,,0.00,WeatherDisplay:10.37,2013-01-28 22:56:00,
2013-01-28 18:01:00,70.7,63.5,30.26,South,175,4.6,4.6,78,0.00,CLR,,0.00,WeatherDisplay:10.37,2013-01-28 23:01:00,
2013-01-28 18:06:00,70.6,63.4,30.26,South,184,2.3,2.3,78,0.00,CLR,,0.00,WeatherDisplay:10.37,2013-01-28 23:06:00,
2013-01-28 18:11:00,70.4,63.6,30.26,South,172,5.8,5.8,79,0.00,CLR,,0.00,WeatherDisplay:10.37,2013-01-28 23:11:00,
2013-01-28 18:16:00,70.3,63.5,30.25,SSW,194,5.8,5.8,79,0.00,CLR,,0.00,WeatherDisplay:10.37,2013-01-28 23:16:00,
2013-01-28 18:21:00,70.2,63.4,30.26,SSE,167,6.9,6.9,79,0.00,CLR,,0.00,WeatherDisplay:10.37,2013-01-28 23:21:00,
2013-01-28 18:26:00,70.1,63.6,30.26,SSW,192,5.8,5.8,80,0.00,CLR,,0.00,WeatherDisplay:10.37,2013-01-28 23:26:00,
2013-01-28 18:31:00,70.0,63.5,30.26,South,171,4.6,4.6,80,0.00,CLR,,0.00,WeatherDisplay:10.37,2013-01-28 23:31:00,
2013-01-28 18:36:00,69.9,63.4,30.26,SE,136,2.3,2.3,80,0.00,CLR,,0.00,WeatherDisplay:10.37,2013-01-28 23:36:00,
2013-01-28 18:41:00,69.9,63.8,30.26,SSE,165,4.6,4.6,81,0.00,CLR,,0.00,WeatherDisplay:10.37,2013-01-28 23:41:00,
2013-01-28 18:46:00,69.7,63.6,30.26,SSE,159,1.1,1.1,81,0.00,CLR,,0.00,WeatherDisplay:10.37,2013-01-28 23:46:00,
2013-01-28 18:51:00,69.7,64.0,30.26,South,170,1.1,1.1,82,0.00,CLR,,0.00,WeatherDisplay:10.37,2013-01-28 23:51:00,
2013-01-28 18:56:00,69.6,63.9,30.27,South,171,3.5,3.5,82,0.00,CLR,,0.00,WeatherDisplay:10.37,2013-01-28 23:56:00,
2013-01-28 19:01:00,69.5,63.8,30.27,South,170,1.1,1.1,82,0.00,CLR,,0.00,WeatherDisplay:10.37,2013-01-29 00:01:00,
2013-01-28 19:06:00,69.4,63.7,30.27,South,170,1.1,0.0,82,0.00,CLR,,0.00,WeatherDisplay:10.37,2013-01-29 00:06:00,
2013-01-28 19:11:00,69.3,63.6,30.27,South,170,0.0,0.0,82,0.00,CLR,,0.00,WeatherDisplay:10.37,2013-01-29 00:11:00,
2013-01-28 19:16:00,69.2,63.8,30.27,SSE,154,0.0,0.0,83,0.00,CLR,,0.00,WeatherDisplay:10.37,2013-01-29 00:16:00,
2013-01-28 19:21:00,69.1,63.7,30.27,SSE,154,1.1,0.0,83,0.00,CLR,,0.00,WeatherDisplay:10.37,2013-01-29 00:21:00,
2013-01-28 19:26:00,69.0,63.6,30.27,SSE,154,0.0,0.0,83,0.00,CLR,,0.00,WeatherDisplay:10.37,2013-01-29 00:26:00,
2013-01-28 19:31:00,68.9,63.9,30.27,SSE,154,1.1,1.1,84,0.00,CLR,,0.00,WeatherDisplay:10.37,2013-01-29 00:31:00,
2013-01-28 19:36:00,68.8,63.8,30.27,SSE,161,1.1,1.1,84,0.00,CLR,,0.00,WeatherDisplay:10.37,2013-01-29 00:36:00,
2013-01-28 19:41:00,68.6,63.6,30.27,SSE,161,0.0,0.1,84,0.00,CLR,,0.00,WeatherDisplay:10.37,2013-01-29 00:41:00,
2013-01-28 19:46:00,68.5,63.5,30.27,SSE,161,0.0,0.0,84,0.00,CLR,,0.00,WeatherDisplay:10.37,2013-01-29 00:46:00,
2013-01-28 19:51:00,68.4,63.7,30.27,SSE,161,2.3,2.3,85,0.00,CLR,,0.00,WeatherDisplay:10.37,2013-01-29 00:51:00,
2013-01-28 19:56:00,68.3,63.6,30.27,SSE,161,0.0,0.0,85,0.00,CLR,,0.00,WeatherDisplay:10.37,2013-01-29 00:56:00,
2013-01-28 20:01:00,68.2,63.5,30.27,SSE,161,1.1,1.1,85,0.00,CLR,,0.00,WeatherDisplay:10.37,2013-01-29 01:01:00,
2013-01-28 20:06:00,68.0,63.3,30.27,SSE,161,2.3,0.0,85,0.00,CLR,,0.00,WeatherDisplay:10.37,2013-01-29 01:06:00,
2013-01-28 20:11:00,67.9,63.6,30.27,SSE,161,0.0,0.0,86,0.00,CLR,,0.00,WeatherDisplay:10.37,2013-01-29 01:11:00,
2013-01-28 20:16:00,67.7,63.4,30.27,SSE,161,0.0,0.0,86,0.00,CLR,,0.00,WeatherDisplay:10.37,2013-01-29 01:16:00,
2013-01-28 20:21:00,67.6,63.3,30.27,SSE,161,0.0,0.0,86,0.00,CLR,,0.00,WeatherDisplay:10.37,2013-01-29 01:21:00,
2013-01-28 20:26:00,67.5,63.2,30.27,SSE,161,0.0,0.0,86,0.00,CLR,,0.00,WeatherDisplay:10.37,2013-01-29 01:26:00,
2013-01-28 20:31:00,67.3,63.0,30.27,SSE,161,0.0,0.0,86,0.00,CLR,,0.00,WeatherDisplay:10.37,2013-01-29 01:31:00,
2013-01-28 20:36:00,67.1,63.1,30.27,SSE,161,0.0,0.0,87,0.00,CLR,,0.00,WeatherDisplay:10.37,2013-01-29 01:36:00,
2013-01-28 20:41:00,66.9,62.9,30.27,SSE,161,0.0,0.0,87,0.00,CLR,,0.00,WeatherDisplay:10.37,2013-01-29 01:41:00,
2013-01-28 20:46:00,66.8,62.8,30.27,SSE,161,0.0,0.0,87,0.00,CLR,,0.00,WeatherDisplay:10.37,2013-01-29 01:46:00,
2013-01-28 20:51:00,66.6,62.9,30.27,SSE,161,0.0,0.0,88,0.00,CLR,,0.00,WeatherDisplay:10.37,2013-01-29 01:51:00,
2013-01-28 20:56:00,66.5,62.8,30.28,SSE,161,0.0,0.0,88,0.00,CLR,,0.00,WeatherDisplay:10.37,2013-01-29 01:56:00,
2013-01-28 21:01:00,66.4,62.7,30.28,SSE,161,0.0,0.0,88,0.00,CLR,,0.00,WeatherDisplay:10.37,2013-01-29 02:01:00,
2013-01-28 21:06:00,66.3,63.0,30.27,SSE,161,0.0,0.0,89,0.00,CLR,,0.00,WeatherDisplay:10.37,2013-01-29 02:06:00,
2013-01-28 21:11:00,66.2,62.9,30.27,SSE,161,0.0,0.0,89,0.00,CLR,,0.00,WeatherDisplay:10.37,2013-01-29 02:11:00,
2013-01-28 21:16:00,66.2,62.9,30.27,SSE,161,0.0,0.0,89,0.00,CLR,,0.00,WeatherDisplay:10.37,2013-01-29 02:16:00,
2013-01-28 21:21:00,66.1,62.8,30.27,SSE,161,0.0,0.0,89,0.00,CLR,,0.00,WeatherDisplay:10.37,2013-01-29 02:21:00,
2013-01-28 21:26:00,66.0,62.7,30.27,SSE,161,0.0,0.0,89,0.00,CLR,,0.00,WeatherDisplay:10.37,2013-01-29 02:26:00,
2013-01-28 21:31:00,65.9,62.9,30.27,SSE,161,0.0,0.0,90,0.00,CLR,,0.00,WeatherDisplay:10.37,2013-01-29 02:31:00,
2013-01-28 21:36:00,65.8,62.8,30.28,SSE,161,0.0,0.0,90,0.00,CLR,,0.00,WeatherDisplay:10.37,2013-01-29 02:36:00,
2013-01-28 21:41:00,65.8,62.8,30.27,SSE,161,0.0,0.0,90,0.00,CLR,,0.00,WeatherDisplay:10.37,2013-01-29 02:41:00,
2013-01-28 21:46:00,65.7,62.7,30.28,SSE,161,0.0,0.0,90,0.00,CLR,,0.00,WeatherDisplay:10.37,2013-01-29 02:46:00,
2013-01-28 21:51:00,65.6,62.6,30.28,SSE,161,0.0,0.0,90,0.00,CLR,,0.00,WeatherDisplay:10.37,2013-01-29 02:51:00,
2013-01-28 21:56:00,65.6,62.6,30.28,SSE,161,0.0,0.0,90,0.00,CLR,,0.00,WeatherDisplay:10.37,2013-01-29 02:56:00,
2013-01-28 22:01:00,65.4,62.4,30.27,SSE,161,0.0,0.0,90,0.00,CLR,,0.00,WeatherDisplay:10.37,2013-01-29 03:01:00,
2013-01-28 22:06:00,65.3,62.6,30.27,SSE,161,0.0,0.0,91,0.00,CLR,,0.00,WeatherDisplay:10.37,2013-01-29 03:06:00,
2013-01-28 22:11:00,65.2,62.5,30.27,SSE,161,0.0,0.0,91,0.00,CLR,,0.00,WeatherDisplay:10.37,2013-01-29 03:11:00,
2013-01-28 22:16:00,65.1,62.4,30.27,SSE,161,0.0,0.0,91,0.00,CLR,,0.00,WeatherDisplay:10.37,2013-01-29 03:16:00,
2013-01-28 22:21:00,65.0,62.3,30.27,SSE,161,0.0,0.0,91,0.00,CLR,,0.00,WeatherDisplay:10.37,2013-01-29 03:21:00,
2013-01-28 22:26:00,64.9,62.2,30.27,SSE,161,0.0,0.0,91,0.00,CLR,,0.00,WeatherDisplay:10.37,2013-01-29 03:26:00,
2013-01-28 22:31:00,64.8,62.4,30.27,SSE,161,0.0,0.0,92,0.00,CLR,,0.00,WeatherDisplay:10.37,2013-01-29 03:31:00,
2013-01-28 22:36:00,64.8,62.4,30.27,SSE,161,0.0,0.0,92,0.00,CLR,,0.00,WeatherDisplay:10.37,2013-01-29 03:36:00,
2013-01-28 22:41:00,64.9,62.5,30.27,SSE,161,1.1,0.0,92,0.00,CLR,,0.00,WeatherDisplay:10.37,2013-01-29 03:41:00,
2013-01-28 22:46:00,64.9,62.5,30.27,SSE,161,0.0,0.0,92,0.00,CLR,,0.00,WeatherDisplay:10.37,2013-01-29 03:46:00,
2013-01-28 22:51:00,65.0,62.9,30.27,SSE,161,1.1,0.0,93,0.00,CLR,,0.00,WeatherDisplay:10.37,2013-01-29 03:51:00,
2013-01-28 22:56:00,65.1,63.0,30.26,SSE,161,1.1,0.0,93,0.00,CLR,,0.00,WeatherDisplay:10.37,2013-01-29 03:56:00,
2013-01-28 23:01:00,65.2,63.1,30.26,SSE,161,1.1,1.1,93,0.00,CLR,,0.00,WeatherDisplay:10.37,2013-01-29 04:01:00,
2013-01-28 23:06:00,65.2,63.1,30.26,SSE,161,1.1,0.0,93,0.00,CLR,,0.00,WeatherDisplay:10.37,2013-01-29 04:06:00,
2013-01-28 23:11:00,65.3,63.2,30.26,SSE,161,0.0,0.0,93,0.00,CLR,,0.00,WeatherDisplay:10.37,2013-01-29 04:11:00,
2013-01-28 23:16:00,65.3,62.9,30.26,SSE,161,0.0,0.2,92,0.00,CLR,,0.00,WeatherDisplay:10.37,2013-01-29 04:16:00,
2013-01-28 23:21:00,65.4,63.0,30.27,SSE,161,1.1,1.1,92,0.00,CLR,,0.00,WeatherDisplay:10.37,2013-01-29 04:21:00,
2013-01-28 23:26:00,65.4,63.0,30.26,SSE,161,1.1,1.1,92,0.00,CLR,,0.00,WeatherDisplay:10.37,2013-01-29 04:26:00,
2013-01-28 23:31:00,65.3,62.9,30.26,SSE,161,1.0,0.0,92,0.00,CLR,,0.00,WeatherDisplay:10.37,2013-01-29 04:31:00,
2013-01-28 23:36:00,65.3,62.9,30.26,SSE,161,0.0,0.0,92,0.00,CLR,,0.00,WeatherDisplay:10.37,2013-01-29 04:36:00,
2013-01-28 23:41:00,65.2,62.8,30.26,SSE,161,1.1,0.0,92,0.00,CLR,,0.00,WeatherDisplay:10.37,2013-01-29 04:41:00,
2013-01-28 23:46:00,65.0,62.9,30.26,SSE,161,2.3,2.3,93,0.00,CLR,,0.00,WeatherDisplay:10.37,2013-01-29 04:46:00,
2013-01-28 23:51:00,64.9,62.8,30.26,SSE,161,0.0,0.1,93,0.00,CLR,,0.00,WeatherDisplay:10.37,2013-01-29 04:51:00,
2013-01-28 23:56:00,64.8,62.7,30.26,SSE,161,0.0,0.0,93,0.00,CLR,,0.00,WeatherDisplay:10.37,2013-01-29 04:56:00,